User: anonymous   Login
Location: Castellare
(42.4669°N, 9.4728°E)
Time: 21:52:29
(UTC+00:00)
Language:

Cosmos 407 Rocket - Orbit

View from above orbital plane
View from above orbital plane
View from above satellite
View from above satellite

Ground track
Ground track

The orbit data is extracted from the following two-line orbital elements,

1  5175U 71035B   20158.60197078 -.00000001 +00000-0 +82776-5 0  9995
2  5175 074.0493 011.8369 0030650 310.5984 049.2504 14.37979747570700
Epoch (UTC): 06 June 2020 14:26:50
Eccentricity: 0.0030650
inclination: 74.0493°
perigee height: 743 km
apogee height: 787 km
right ascension of ascending node: 11.8369°
argument of perigee: 310.5984°
revolutions per day: 14.37979747
mean anomaly at epoch: 49.2504°
orbit number at epoch: 57070

The dashed part of the orbit path shows where the satellite is in the earth's shadow,  

DLR